Weather History for KN60 - August, 2013

Change the Weather History Date:

Wednesday, August 21, 2013

  Actual Average Record
Temperature  
Mean Temperature 68 °F -  
Max Temperature 79 °F 81 °F 92 °F (2012)
Min Temperature 56 °F 52 °F 45 °F (2011)
Cooling Degree Days 3    
Month to date cooling degree days 61  
Year to date cooling degree days 222  
Since 1 June cooling degree days 216  
Growing Degree Days 17 (Base 50)    
Moisture  
Dew Point 52 °F    
Average Humidity 61    
Maximum Humidity 86    
Minimum Humidity 36    
Precipitation  
Precipitation 0.00 in - - ()
Month to date precipitation 2.65  
Year to date precipitation 21.50  
Sea Level Pressure  
Sea Level Pressure 30.03 in    
Wind  
Wind Speed 8 mph (NE)    
Max Wind Speed 15 mph    
Max Gust Speed 21 mph    
Averages and records for this station are not official NWS values.
T = Trace of Precipitation, MM = Missing Value Source: NWS Daily Summary

Daily Weather History Graph

Daily Weather History Graph

Search for Another Location

Airport or City:

Trip Planner

Search our weather history database for the weather conditions in past years. The results will help you decide how hot, cold, wet, or windy it might be!

Date:

Astronomy

Aug. 21, 2013 Rise Set
Actual Time 6:49 AM CDT 8:46 PM CDT
Civil Twilight 6:16 AM CDT 9:19 PM CDT
Nautical Twilight 5:35 AM CDT 10:00 PM CDT
Astronomical Twilight 4:50 AM CDT 10:45 PM CDT
Moon 8:46 PM CDT (8/21) 7:39 AM CDT (8/21)
Length of Visible Light 15h 02m
Length of Day
13h 56m
Waxing Gibbous, 99% of the Moon is Illuminated
Aug 21
Waxing Gibbous
Aug 28
Last Quarter
Sep 5
New
Sep 12
First Quarter
Sep 19
Full

Hourly Weather History & Observations

Time (CDT) Temp. Dew Point Humidity Pressure Visibility Wind Dir Wind Speed Gust Speed Precip Events Conditions
12:52 AM 66.0 °F 57.0 °F 73% 29.87 in - North 6.9 mph - N/A   Unknown
1:52 AM 64.9 °F 57.9 °F 78% 29.88 in - NNE 8.1 mph - N/A   Unknown
2:52 AM 63.0 °F 57.0 °F 81% 29.89 in - NE 3.5 mph - N/A   Unknown
3:52 AM 60.1 °F 54.0 °F 80% 29.89 in - East 3.5 mph - N/A   Unknown
4:52 AM 60.1 °F 55.0 °F 83% 29.90 in - NNE 3.5 mph - N/A   Unknown
5:52 AM 57.0 °F 54.0 °F 89% 29.92 in - North 5.8 mph - N/A   Unknown
6:52 AM 57.0 °F 54.0 °F 89% 29.96 in - North 5.8 mph - N/A   Unknown
7:52 AM 60.1 °F 55.9 °F 86% 30.00 in - NNE 10.4 mph 16.1 mph N/A   Unknown
8:52 AM 64.0 °F 55.9 °F 75% 30.03 in - NNE 8.1 mph - N/A   Unknown
9:52 AM 68.0 °F 48.0 °F 49% 30.06 in - NNE 10.4 mph 20.7 mph N/A   Unknown
10:52 AM 69.1 °F 48.0 °F 47% 30.07 in - ENE 11.5 mph - N/A   Unknown
11:52 AM 70.0 °F 45.0 °F 41% 30.07 in - ENE 12.7 mph 18.4 mph N/A   Unknown
12:52 PM 72.0 °F 46.0 °F 40% 30.08 in - NE 8.1 mph 20.7 mph N/A   Unknown
1:52 PM 75.0 °F 48.0 °F 38% 30.08 in - ENE 10.4 mph - N/A   Unknown
2:52 PM 75.9 °F 48.0 °F 37% 30.08 in - ENE 9.2 mph - N/A   Unknown
3:52 PM 77.0 °F 48.9 °F 37% 30.09 in - East 9.2 mph - N/A   Unknown
4:52 PM 77.0 °F 51.1 °F 40% 30.09 in - ENE 6.9 mph - N/A   Unknown
5:52 PM 75.9 °F 50.0 °F 40% 30.09 in - NE 6.9 mph - N/A   Unknown
6:52 PM 75.0 °F 50.0 °F 41% 30.09 in - NE 5.8 mph - N/A   Unknown
7:52 PM 72.0 °F 52.0 °F 49% 30.10 in - NNE 9.2 mph - N/A   Unknown
8:52 PM 68.0 °F 51.1 °F 55% 30.12 in - NE 4.6 mph - N/A   Unknown
9:52 PM 66.0 °F 51.1 °F 59% 30.13 in - NNE 6.9 mph - N/A   Unknown
10:52 PM 63.0 °F 52.0 °F 67% 30.14 in - NNE 5.8 mph - N/A   Unknown
11:52 PM 61.0 °F 51.1 °F 70% 30.14 in - NNE 4.6 mph - N/A   Unknown